Zurück zum Katalog

STARLINK-36596

AktivKommunikationSSO
NORAD 67670·PAYLOAD·🇺🇸 United States

Gestartet Feb 2, 2026 von Vandenberg Space Force Base

Loading…

Nächste Überflüge (nächste 24 Stunden)

TLE

AktuellSource: CelesTrak SupGP

Epoche: Sep 15, 2026, 04:07 UTC

1 67670C 26022Y   26258.17201389 -.00059211  00000+0 -18382-2 0  2583
2 67670  97.2840 289.8391 0000913  90.8645 223.8768 15.33467983    19

Verfolge STARLINK-36596 in Echtzeit mit AllMySat

Download on the App Store